Home > Time Zones > World Clock > Weather > India > Surat > Past weeks

Flag for India Weather past 2 weeks in Surat, Gujarat, India

Now
97 °F

Scattered clouds.


Feels Like: 107 °F
Forecast: 80 / 88 °F
Wind: 12 mph from Southwest

Location: Ahmadabad Airport

Current Time: Jul 2, 2015 at 3:43:36 PM

Latest Report: Jul 2, 2015 at 3:10 PM


Visibility: 4 mi

Pressure: 29.68 "Hg

Humidity: 47%

Dew point: 73 °F

Location of SuratLocation

Historic Weather in Surat — Graph

°F

Surat temperature yesterday

Maximum temperature yesterday: 99 °F (at 5:10 PM)
Minimum temperature yesterday: 82 °F (at 4:40 AM)
Average temperature yesterday: 89 °F

Past Weeks' High & Low Weather Summary

 TemperatureHumidityPressure
High102 °F (Jun 18, 5:10 PM)94% (Jun 24, 6:40 PM)29.77 "Hg (Jun 24, 6:40 PM)
Low79 °F (Jun 24, 6:40 PM)42% (Jul 1, 5:10 PM)29.33 "Hg (Jun 20, 4:40 PM)
Average89 °F67%29.54 "Hg
* Reported Jun 17 2:40 PM — Jul 2 2:40 PM, Surat, Weather by CustomWeather, © 2015

Note: Actual official high and low records may vary slightly from our data, if they occured in-between our weather recording intervals... More about our weather records

Advertising

Surat weather history for previous 24 hours

 ConditionsComfort  
Time TempWeatherWind HumidityBarometerVisibility
2:40 PM
Thu, Jul 2
97 °FScattered clouds.14 mph47%29.71 "Hg4 mi
1:40 PM95 °FScattered clouds.12 mph47%29.71 "Hg4 mi
1:10 PM95 °FScattered clouds.13 mph50%29.74 "Hg4 mi
12:10 PM93 °FScattered clouds.9 mph53%29.74 "Hg4 mi
11:40 AM90 °FScattered clouds.10 mph59%29.74 "Hg3 mi
11:10 AM90 °FScattered clouds.13 mph63%29.77 "Hg3 mi
10:10 AM86 °FPartly sunny.13 mph70%29.77 "Hg2 mi
9:40 AM86 °FScattered clouds.14 mph70%29.77 "Hg2 mi
9:10 AM86 °FScattered clouds.14 mph70%29.77 "Hg2 mi
8:10 AM84 °FScattered clouds.10 mph74%29.77 "Hg2 mi
7:40 AM84 °FHaze.8 mph74%29.77 "Hg2 mi
7:10 AM82 °FHaze.8 mph79%29.77 "Hg2 mi
6:10 AM82 °FHaze.7 mph79%29.77 "Hg2 mi
5:40 AM82 °FHaze.10 mph79%29.74 "Hg2 mi
5:10 AM82 °FHaze.8 mph74%29.74 "Hg2 mi
4:40 AM84 °FHaze.8 mph70%29.71 "Hg2 mi
4:10 AM84 °FHaze.8 mph70%29.71 "Hg2 mi
3:10 AM86 °FHaze.9 mph70%29.71 "Hg2 mi
2:40 AM86 °FHaze.7 mph70%29.71 "Hg2 mi
1:40 AM88 °FPassing clouds.8 mph70%29.71 "Hg2 mi
1:10 AM86 °FPassing clouds.9 mph70%29.71 "Hg2 mi
12:40 AM86 °FPassing clouds.7 mph70%29.71 "Hg2 mi
12:10 AM86 °FHaze.5 mph70%29.71 "Hg2 mi
11:40 PM
Wed, Jul 1
86 °FHaze.2 mph75%29.71 "Hg2 mi
11:10 PM88 °FPassing clouds.3 mph70%29.71 "Hg2 mi
10:40 PM88 °FPassing clouds.6 mph70%29.68 "Hg2 mi
10:10 PM88 °FPassing clouds.12 mph70%29.68 "Hg2 mi
9:40 PM90 °FHaze.14 mph67%29.68 "Hg2 mi
9:10 PM90 °FPassing clouds.10 mph67%29.65 "Hg2 mi
8:40 PM91 °FPassing clouds.12 mph59%29.65 "Hg2 mi
8:10 PM93 °FPassing clouds.17 mph56%29.65 "Hg2 mi
7:40 PM95 °FPassing clouds.14 mph53%29.65 "Hg2 mi
7:10 PM95 °FPassing clouds.12 mph53%29.65 "Hg2 mi
5:40 PM99 °FScattered clouds.12 mph47%29.62 "Hg4 mi
5:10 PM99 °FScattered clouds.9 mph42%29.62 "Hg4 mi
4:40 PM97 °FScattered clouds.10 mph47%29.62 "Hg4 mi
3:10 PM97 °FPartly sunny.12 mph50%29.68 "Hg4 mi
Weather by CustomWeather, © 2015

See weather overviewHow to use our weather pages